San Diego, CA

2:39 PM PST on February 21, 2017 (GMT -0800)
Miramar Marine Corps Air Station-Mitscher

Weather History for KNKX - September, 2013

Change the Weather History Date:

Sunday, September 22, 2013

  Actual Average Record
Temperature  
Mean Temperature 65 °F -  
Max Temperature 75 °F 76 °F 91 °F (2012)
Min Temperature 57 °F 59 °F 53 °F (2005)
Growing Degree Days 15 (Base 50)    
Moisture  
Dew Point 55 °F    
Average Humidity 71    
Maximum Humidity 90    
Minimum Humidity 46    
Precipitation  
Precipitation 0.00 in - - ()
Sea Level Pressure  
Sea Level Pressure 29.81 in    
Wind  
Wind Speed 4 mph (West)    
Max Wind Speed 12 mph    
Max Gust Speed 16 mph    
Visibility 10 miles    
Events      
Averages and records for this station are not official NWS values.
T = Trace of Precipitation, MM = Missing Value Source: NWS Daily Summary

Daily Weather History Graph

Daily Weather History Graph

Search for Another Location

Airport or City:

Trip Planner

Search our weather history database for the weather conditions in past years. The results will help you decide how hot, cold, wet, or windy it might be!

Date:

Astronomy

Sep. 22, 2013 Rise Set
Actual Time 6:36 AM PDT 6:44 PM PDT
Civil Twilight 6:12 AM PDT 7:09 PM PDT
Nautical Twilight 5:43 AM PDT 7:38 PM PDT
Astronomical Twilight 5:14 AM PDT 8:07 PM PDT
Moon 8:51 PM PDT (9/22) 9:49 AM PDT (9/22)
Length of Visible Light 12h 57m
Length of Day
12h 07m
Waning Gibbous, 88% of the Moon is Illuminated
Sep 22
Waning Gibbous
Sep 26
Last Quarter
Oct 4
New
Oct 11
First Quarter
Oct 18
Full

Hourly Weather History & Observations

Time (PDT) Temp. Dew Point Humidity Pressure Visibility Wind Dir Wind Speed Gust Speed Precip Events Conditions
12:55 AM 64.0 °F 60.1 °F 87% 29.82 in 10.0 mi Calm Calm - N/A   Mostly Cloudy
1:55 AM 64.0 °F 60.1 °F 87% 29.81 in 10.0 mi Calm Calm - N/A   Mostly Cloudy
2:55 AM 63.0 °F 59.0 °F 87% 29.81 in 10.0 mi Calm Calm - N/A   Mostly Cloudy
3:55 AM 60.1 °F 57.0 °F 90% 29.80 in 10.0 mi Calm Calm - N/A   Mostly Cloudy
4:55 AM 59.0 °F 55.9 °F 90% 29.81 in 10.0 mi Calm Calm - N/A   Mostly Cloudy
5:55 AM 57.9 °F 55.0 °F 90% 29.81 in 10.0 mi Calm Calm - N/A   Scattered Clouds
6:55 AM 59.0 °F 55.9 °F 90% 29.81 in 10.0 mi SSE 4.6 mph - N/A   Scattered Clouds
7:55 AM 64.0 °F 59.0 °F 84% 29.83 in 10.0 mi SE 4.6 mph - N/A   Scattered Clouds
8:55 AM 68.0 °F 57.0 °F 68% 29.84 in 10.0 mi SSW 6.9 mph - N/A   Mostly Cloudy
9:55 AM 70.0 °F 53.1 °F 55% 29.85 in 10.0 mi SW 4.6 mph - N/A   Mostly Cloudy
10:55 AM 69.1 °F 55.0 °F 61% 29.85 in 10.0 mi SW 8.1 mph - N/A   Mostly Cloudy
11:55 AM 71.1 °F 54.0 °F 55% 29.83 in 10.0 mi Variable 6.9 mph - N/A   Scattered Clouds
12:55 PM 73.0 °F 55.0 °F 53% 29.82 in 10.0 mi West 9.2 mph 16.1 mph N/A   Scattered Clouds
1:55 PM 73.0 °F 53.1 °F 49% 29.80 in 10.0 mi West 9.2 mph - N/A   Partly Cloudy
2:55 PM 73.0 °F 53.1 °F 49% 29.79 in 10.0 mi West 11.5 mph - N/A   Partly Cloudy
3:55 PM 73.0 °F 51.1 °F 46% 29.79 in 10.0 mi West 9.2 mph - N/A   Partly Cloudy
4:55 PM 71.1 °F 54.0 °F 55% 29.79 in 10.0 mi West 9.2 mph - N/A   Partly Cloudy
5:55 PM 69.1 °F 54.0 °F 58% 29.79 in 10.0 mi NW 11.5 mph - N/A   Partly Cloudy
6:55 PM 66.0 °F 55.0 °F 68% 29.80 in 10.0 mi NW 9.2 mph - N/A   Partly Cloudy
7:55 PM 64.9 °F 55.9 °F 73% 29.81 in 10.0 mi NNW 6.9 mph - N/A   Partly Cloudy
8:55 PM 64.9 °F 55.9 °F 73% 29.82 in 10.0 mi North 4.6 mph - N/A   Partly Cloudy
9:55 PM 64.0 °F 55.0 °F 73% 29.82 in 10.0 mi NNW 3.5 mph - N/A   Partly Cloudy
10:55 PM 63.0 °F 55.0 °F 75% 29.83 in 10.0 mi NNW 3.5 mph - N/A   Clear
11:55 PM 59.0 °F 53.1 °F 81% 29.82 in 10.0 mi ENE 4.6 mph - N/A   Clear